CW0566 Weather Reports


Display with metric or nautical units.
time (UTC)temp
F
wind
direction
speed
MPH
gust
MPH
rain 1hr
in
rain 24hr
in
rain mn
in
humidity
%
barometer
mb
20260903143015 79 270 2.0 6.0 0.00 0.68 0.62 92 1015.8
20260903142035 78 315 4.0 8.0 0.00 0.68 0.62 92 1015.7
20260903141036 78 315 3.0 6.0 0.00 0.68 0.62 93 1015.8
20260903140016 77 315 4.0 10.0 0.00 0.68 0.62 96 1015.7
20260903135015 77 248 3.0 6.0 0.00 0.68 0.62 98 1015.4
20260903134036 75 315 2.0 8.0 0.00 0.68 0.62 98 1015.0
20260903133035 74 315 2.0 6.0 0.00 0.68 0.62 99 1014.9
20260903132015 74 315 2.0 5.0 0.00 0.68 0.62 99 1015.2
20260903131018 73 293 2.0 8.0 0.00 0.68 0.62 99 1015.3
20260903130017 73 315 3.0 5.0 0.00 0.68 0.62 99 1015.6
20260903125017 73 270 1.0 5.0 0.01 0.68 0.62 99 1015.1
20260903124017 72 293 5.0 12.0 0.01 0.68 0.62 99 1015.1
20260903123017 72 315 3.0 10.0 0.01 0.68 0.62 99 1015.4
20260903122017 71 270 2.0 5.0 0.01 0.68 0.62 99 1015.3
20260903121017 71 248 2.0 7.0 0.01 0.68 0.62 99 1015.9
20260903120017 72 315 1.0 5.0 0.01 0.68 0.62 99 1016.9
20260903115037 71 315 3.0 5.0 0.00 0.67 0.61 99 1017.2
20260903114017 71 293 1.0 3.0 0.00 0.67 0.61 99 1017.0
20260903113017 71 293 2.0 4.0 0.00 0.67 0.61 99 1017.2
20260903112017 71 293 1.0 3.0 0.00 0.67 0.61 99 1017.1
20260903111017 71 270 1.0 2.0 0.00 0.67 0.61 99 1017.1
20260903110017 71 293 1.0 3.0 0.00 0.67 0.61 99 1017.1
20260903105057 71 293 1.0 4.0 0.00 0.67 0.61 99 1016.6
20260903104017 71 270 1.0 3.0 0.00 0.67 0.61 98 1016.7
20260903103017 71 225 1.0 3.0 0.00 0.67 0.61 98 1016.7
20260903102017 71 0.0 1.0 0.01 0.67 0.61 98 1016.8
20260903101017 71 225 1.0 3.0 0.02 0.67 0.61 98 1017.1
20260903100017 71 0.0 1.0 0.05 0.67 0.61 98 1017.0
20260903095017 71 0.0 2.0 0.05 0.67 0.61 98 1017.0
20260903094037 71 203 1.0 4.0 0.05 0.67 0.61 98 1017.2
20260903093017 71 135 1.0 2.0 0.05 0.67 0.61 98 1017.6
20260903092017 71 135 1.0 2.0 0.04 0.66 0.60 98 1017.7
20260903091017 71 135 2.0 4.0 0.03 0.65 0.59 98 1017.7
20260903090017 71 23 3.0 8.0 0.00 0.62 0.56 98 1018.5
20260903085037 71 135 3.0 12.0 0.00 0.62 0.56 98 1018.7
20260903084017 71 0.0 0.0 0.00 0.62 0.56 98 1017.0
20260903083017 71 0.0 0.0 0.01 0.62 0.56 98 1016.6
20260903082017 71 0.0 0.0 0.01 0.62 0.56 98 1016.7
20260903081017 71 0.0 0.0 0.01 0.62 0.56 98 1016.9
20260903080017 71 0.0 2.0 0.01 0.62 0.56 98 1016.8
20260903075017 71 0.0 0.0 0.01 0.62 0.56 98 1016.9
20260903074016 71 0.0 1.0 0.02 0.62 0.56 98 1016.8
20260903073017 71 0.0 1.0 0.03 0.61 0.55 98 1016.9
20260903072017 71 0.0 2.0 0.09 0.61 0.55 98 1017.0
20260903071017 71 158 1.0 3.0 0.14 0.61 0.55 98 1017.0
20260903070037 71 135 3.0 8.0 0.48 0.61 0.55 98 1016.9
20260903065017 71 158 3.0 7.0 0.55 0.61 0.55 98 1016.8
20260903064017 71 158 3.0 4.0 0.54 0.60 0.54 98 1017.3
20260903063016 71 180 3.0 6.0 0.52 0.58 0.52 98 1017.1
20260903062036 71 113 1.0 4.0 0.46 0.52 0.46 97 1018.2
20260903061016 71 23 2.0 7.0 0.41 0.47 0.41 97 1018.4
20260903055516 72 135 1.0 2.0 0.00 0.06 0.00 97 1018.6
20260903054516 71 0.0 2.0 0.00 0.06 0.00 97 1017.5
20260903053517 71 158 1.0 2.0 0.00 0.06 0.00 97 1017.2
20260903052516 71 158 1.0 3.0 0.00 0.06 0.00 97 1017.5
20260903051516 71 158 1.0 3.0 0.00 0.06 0.00 97 1017.3
20260903050516 71 0.0 2.0 0.00 0.06 0.00 97 1017.2
20260903045516 71 158 1.0 4.0 0.00 0.06 0.00 97 1017.3
20260903044516 71 180 1.0 3.0 0.00 0.06 0.00 96 1017.5
20260903043516 71 0.0 1.0 0.00 0.06 0.00 96 1017.5
20260903042517 72 0.0 2.0 0.00 0.06 0.00 96 1017.7
20260903041516 72 0.0 1.0 0.00 0.06 0.00 96 1018.0
20260903040536 72 0.0 1.0 0.00 0.06 0.00 96 1018.0
20260903035517 72 0.0 2.0 0.00 0.06 0.06 96 1018.1
20260903034517 72 0.0 0.0 0.00 0.06 0.06 96 1018.0
20260903033517 72 0.0 2.0 0.00 0.06 0.06 96 1018.1
20260903032517 72 0.0 2.0 0.00 0.06 0.06 96 1018.1
20260903031517 72 0.0 2.0 0.00 0.06 0.06 96 1018.0
20260903030517 72 158 1.0 2.0 0.00 0.06 0.06 96 1018.2
20260903025518 72 0.0 0.0 0.00 0.07 0.06 96 1018.3
20260903024537 72 0.0 1.0 0.00 0.07 0.06 96 1018.1
20260903023517 72 0.0 1.0 0.00 0.07 0.06 96 1018.2
20260903022537 72 158 1.0 3.0 0.00 0.07 0.06 96 1017.8
20260903021517 72 0.0 2.0 0.00 0.07 0.06 96 1017.7
20260903020517 72 0.0 2.0 0.00 0.07 0.06 96 1017.9
20260903015517 72 158 2.0 4.0 0.00 0.07 0.06 96 1017.9
20260903014517 72 158 1.0 3.0 0.00 0.07 0.06 96 1017.9
20260903013516 72 0.0 2.0 0.00 0.07 0.06 96 1018.0
20260903012517 72 0.0 2.0 0.00 0.07 0.06 95 1018.2
20260903011516 72 0.0 1.0 0.00 0.07 0.06 95 1018.1
20260903010517 73 158 1.0 3.0 0.00 0.15 0.06 95 1017.8
20260903005537 73 0.0 2.0 0.00 0.31 0.06 95 1017.9
20260903004516 73 180 1.0 2.0 0.00 0.32 0.06 95 1018.0
20260903003517 73 180 1.0 3.0 0.00 0.32 0.06 94 1017.9
20260903002516 73 180 1.0 3.0 0.00 0.33 0.06 94 1018.0
20260903001537 73 180 1.0 4.0 0.00 0.33 0.06 94 1017.7
20260903000517 74 180 1.0 4.0 0.00 0.33 0.06 94 1017.8
20260902235517 74 0.0 2.0 0.00 0.33 0.06 94 1017.7
20260902234517 74 180 1.0 2.0 0.00 0.33 0.06 94 1017.5
20260902233516 74 0.0 3.0 0.00 0.33 0.06 94 1017.6
20260902232516 74 0.0 2.0 0.00 0.33 0.06 93 1017.6
20260902231516 74 180 1.0 2.0 0.00 0.33 0.06 93 1017.5
20260902230516 74 180 1.0 2.0 0.00 0.33 0.06 93 1017.7
20260902225516 75 180 1.0 3.0 0.00 0.33 0.06 93 1017.7
20260902224517 75 0.0 2.0 0.00 0.33 0.06 92 1017.9
20260902223516 75 0.0 2.0 0.00 0.33 0.06 92 1017.9
20260902222516 75 180 1.0 3.0 0.00 0.33 0.06 92 1018.2
20260902221516 75 180 1.0 2.0 0.00 0.33 0.06 92 1018.4
20260902220516 75 158 1.0 4.0 0.00 0.33 0.06 93 1018.0
20260902215556 75 113 2.0 6.0 0.00 0.33 0.06 93 1017.8
20260902214517 75 180 1.0 2.0 0.00 0.33 0.06 93 1017.8
20260902213516 76 180 1.0 3.0 0.00 0.33 0.06 93 1017.7
20260902212516 75 158 2.0 5.0 0.00 0.33 0.06 93 1017.7
20260902211516 76 158 1.0 4.0 0.00 0.33 0.06 93 1017.7
20260902210517 76 158 2.0 5.0 0.00 0.33 0.06 93 1017.7
20260902205516 76 158 2.0 5.0 0.00 0.33 0.06 94 1018.1
20260902204516 76 158 2.0 4.0 0.00 0.33 0.06 95 1018.1
20260902203536 75 135 3.0 5.0 0.00 0.33 0.06 95 1017.9
20260902202516 75 135 1.0 3.0 0.00 0.33 0.06 96 1017.7
20260902201516 75 158 3.0 7.0 0.00 0.33 0.06 95 1017.8
20260902200516 75 158 1.0 4.0 0.00 0.33 0.06 96 1017.8
20260902195516 75 158 2.0 4.0 0.01 0.33 0.06 96 1017.9
20260902194536 75 180 2.0 4.0 0.01 0.33 0.06 96 1018.2
20260902193516 75 203 2.0 4.0 0.01 0.33 0.06 96 1018.0
20260902192537 75 203 1.0 2.0 0.03 0.33 0.06 96 1018.1
20260902191516 75 203 1.0 3.0 0.05 0.33 0.06 95 1018.0
20260902190516 75 203 1.0 3.0 0.06 0.33 0.06 95 1018.3
20260902185536 75 0.0 1.0 0.05 0.32 0.05 94 1018.7
20260902184516 75 0.0 2.0 0.05 0.32 0.05 94 1018.5
20260902183536 75 203 1.0 3.0 0.05 0.32 0.05 93 1017.9
20260902182516 76 0.0 2.0 0.03 0.30 0.03 93 1018.5
20260902181516 76 0.0 2.0 0.01 0.28 0.01 92 1019.1
20260902180516 76 0.0 1.0 0.00 0.27 0.00 91 1019.5
20260902175516 76 0.0 1.0 0.00 0.27 0.00 90 1019.6
20260902174515 76 0.0 1.0 0.00 0.27 0.00 90 1019.8
20260902173536 76 113 1.0 2.0 0.00 0.27 0.00 90 1019.7
20260902172536 76 0.0 2.0 0.00 0.27 0.00 91 1020.0
20260902171516 76 0.0 2.0 0.00 0.27 0.00 91 1019.9
20260902170516 76 113 1.0 3.0 0.00 0.27 0.00 91 1020.0
20260902165536 76 135 1.0 4.0 0.00 0.27 0.00 91 1019.9
20260902164516 76 135 2.0 4.0 0.00 0.27 0.00 91 1019.5
20260902163536 76 135 2.0 6.0 0.00 0.27 0.00 91 1019.4
20260902162515 76 113 3.0 7.0 0.00 0.27 0.00 91 1019.6
20260902161515 76 135 4.0 9.0 0.00 0.27 0.00 90 1019.5
20260902160515 77 158 3.0 8.0 0.00 0.27 0.00 90 1019.4
20260902155515 77 113 2.0 4.0 0.00 0.27 0.00 91 1019.5
20260902154515 76 135 4.0 8.0 0.00 0.27 0.00 91 1019.5
20260902153516 76 135 3.0 7.0 0.00 0.27 0.00 93 1019.5
20260902152515 75 113 2.0 7.0 0.00 0.27 0.00 93 1019.6
20260902151515 74 135 2.0 6.0 0.00 0.27 0.00 94 1019.6
20260902150516 75 158 2.0 5.0 0.00 0.27 0.00 94 1019.7
20260902145535 75 135 3.0 9.0 0.00 0.27 0.00 94 1019.8
20260902144515 74 113 2.0 5.0 0.00 0.27 0.00 96 1019.6